FW0464 Weather Reports


Display with metric or nautical units.
time (UTC)temp
F
wind
direction
speed
MPH
gust
MPH
rain 1hr
in
rain 24hr
in
rain mn
in
humidity
%
barometer
mb
20260906213033 72 9 11.0 17.0 0.00 0.00 0.00 80 1008.5
20260906211530 72 9 6.0 15.0 0.00 0.00 0.00 81 1008.6
20260906210029 71 9 11.0 16.0 0.00 0.00 0.00 82 1008.7
20260906204527 70 9 13.0 17.0 0.00 0.00 0.00 83 1008.9
20260906203026 70 10 10.0 14.0 0.00 0.00 0.00 84 1009.3
20260906201526 69 9 9.0 13.0 0.00 0.00 0.00 85 1009.6
20260906200025 68 9 10.0 16.0 0.00 0.00 0.00 86 1009.5
20260906194526 68 9 11.0 19.0 0.00 0.00 0.00 86 1009.6
20260906193025 68 10 13.0 23.0 0.00 0.00 0.00 86 1009.1
20260906191524 69 9 14.0 21.0 0.00 0.00 0.00 84 1008.9
20260906190022 70 9 15.0 21.0 0.00 0.00 0.00 84 1009.0
20260906184519 70 9 12.0 19.0 0.00 0.00 0.00 85 1009.3
20260906183019 69 17 14.0 21.0 0.00 0.00 0.00 87 1009.4
20260906181514 69 360 12.0 16.0 0.00 0.00 0.00 89 1009.8
20260906180012 68 11 10.0 16.0 0.00 0.00 0.00 90 1010.0
20260906174512 67 257 10.0 14.0 0.00 0.00 0.00 91 1010.2
20260906173011 67 19 9.0 15.0 0.00 0.00 0.00 92 1010.3
20260906171509 66 15 11.0 16.0 0.00 0.00 0.00 93 1010.2
20260906170007 65 32 6.0 13.0 0.00 0.00 0.00 94 1010.5
20260906164510 65 36 11.0 14.0 0.00 0.00 0.00 94 1010.5
20260906163005 65 53 11.0 15.0 0.00 0.00 0.00 95 1010.3
20260906161504 65 23 10.0 15.0 0.00 0.00 0.00 95 1010.7
20260906160000 64 9 9.0 17.0 0.00 0.00 0.00 95 1010.4
20260906153059 64 360 14.0 18.0 0.00 0.00 0.00 95 1010.1
20260906151611 64 17 11.0 18.0 0.00 0.00 0.00 95 1010.2
20260906150104 64 10 14.0 20.0 0.00 0.00 0.00 95 1010.2
20260906143128 63 9 9.0 15.0 0.00 0.00 0.00 95 1009.9
20260906141557 63 17 8.0 14.0 0.00 0.00 0.00 95 1010.2
20260906140059 63 9 10.0 16.0 0.00 0.00 0.00 95 1009.7
20260906133057 62 9 13.0 19.0 0.00 0.00 0.00 94 1009.6
20260906131552 62 9 4.0 14.0 0.00 0.00 0.00 94 1010.4
20260906130052 62 9 10.0 17.0 0.00 0.00 0.00 94 1010.0
20260906123117 62 9 5.0 15.0 0.00 0.00 0.00 94 1010.1
20260906121551 62 9 11.0 17.0 0.00 0.00 0.00 94 1009.8
20260906120047 62 9 10.0 17.0 0.00 0.00 0.00 94 1009.9
20260906113045 62 10 8.0 11.0 0.00 0.00 0.00 93 1010.7
20260906111545 62 9 11.0 14.0 0.00 0.00 0.00 93 1010.5
20260906110042 62 17 4.0 8.0 0.00 0.00 0.00 93 1011.8
20260906103041 63 15 4.0 12.0 0.00 0.00 0.00 93 1012.1
20260906101543 63 17 7.0 10.0 0.00 0.00 0.00 93 1012.1
20260906100039 62 16 3.0 9.0 0.00 0.00 0.00 93 1011.9
20260906093038 62 17 4.0 8.0 0.00 0.00 0.00 92 1010.7
20260906091543 62 9 6.0 10.0 0.00 0.00 0.00 92 1010.6
20260906090033 62 9 8.0 13.0 0.00 0.00 0.00 92 1010.5
20260906083034 62 9 7.0 11.0 0.00 0.00 0.00 91 1010.7
20260906081527 62 9 8.0 10.0 0.00 0.00 0.00 91 1010.7
20260906080030 63 9 5.0 10.0 0.00 0.00 0.00 90 1010.8
20260906073022 63 9 7.0 11.0 0.00 0.00 0.00 90 1010.9
20260906071518 63 9 7.0 10.0 0.00 0.00 0.00 89 1011.0
20260906070018 63 9 7.0 9.0 0.00 0.00 0.00 88 1011.1
20260906063018 64 9 8.0 10.0 0.00 0.00 0.00 87 1011.1
20260906061518 65 9 6.0 12.0 0.00 0.00 0.00 86 1011.2
20260906060017 65 9 7.0 12.0 0.00 0.00 0.00 86 1011.3
20260906053016 66 34 4.0 12.0 0.00 0.00 0.00 84 1011.5
20260906051516 66 29 6.0 10.0 0.00 0.00 0.00 83 1011.6
20260906050016 67 34 7.0 12.0 0.00 0.00 0.00 82 1011.8
20260906043027 68 36 9.0 14.0 0.00 0.00 0.00 81 1012.2
20260906041618 68 46 9.0 13.0 0.00 0.00 0.00 80 1012.0
20260906040015 68 36 9.0 13.0 0.00 0.00 0.00 79 1012.0
20260906033020 69 16 11.0 16.0 0.00 0.00 0.00 76 1012.2
20260906031515 70 19 10.0 15.0 0.00 0.00 0.00 76 1012.2
20260906030018 70 14 10.0 17.0 0.00 0.00 0.00 76 1012.2
20260906023008 70 28 10.0 14.0 0.00 0.00 0.00 74 1011.7
20260906021507 70 10 9.0 16.0 0.00 0.00 0.00 73 1011.5
20260906020009 70 15 10.0 18.0 0.00 0.00 0.00 73 1011.3
20260906013002 71 9 12.0 16.0 0.00 0.00 0.00 71 1010.9
20260906011702 72 9 11.0 17.0 0.00 0.00 0.00 69 1010.7
20260906010059 73 9 13.0 20.0 0.00 0.00 0.00 68 1010.4
20260906003102 74 19 10.0 18.0 0.00 0.00 0.00 65 1010.1
20260906001553 75 18 11.0 22.0 0.00 0.00 0.00 64 1009.7
20260906000057 76 17 16.0 25.0 0.00 0.00 0.00 62 1009.6
20260905233052 79 360 7.0 16.0 0.00 0.00 0.00 60 1009.2
20260905231553 79 17 10.0 18.0 0.00 0.00 0.00 60 1009.2
20260905230054 80 20 8.0 16.0 0.00 0.00 0.00 59 1009.1
20260905223049 80 19 12.0 18.0 0.00 0.00 0.00 59 1009.0
20260905221548 80 17 11.0 17.0 0.00 0.00 0.00 59 1009.1
20260905220047 81 14 9.0 17.0 0.00 0.00 0.00 59 1009.0